Home > Weather > Salta > Past weeks

Flag for Argentina Weather for the Past 2 Weeks in Salta, Salta, Argentina

Now
61 °F

Broken clouds.


Feels Like: 61 °F
Forecast: 46 / 64 °F
Wind: 3 mph from North

Location: Salta Aerodrome

Current Time: May 6, 2016 at 12:03:22 PM

Latest Report: May 6, 2016 at 11:00 AM


Visibility: N/A

Pressure: 30.15 "Hg (26.21 "Hg at 1184m altitude)

Humidity: 77%

Dew Point: 54 °F

Location of SaltaLocation

Historic Weather in Salta — Graph

°F

Salta Temperature Yesterday

Maximum temperature yesterday: 64 °F (at 2:00 PM)
Minimum temperature yesterday: 54 °F (at 3:00 AM)
Average temperature yesterday: 58 °F

High & Low Weather Summary for the Past Weeks

 TemperatureHumidityPressure
High82 °F (Apr 23, 4:00 PM)100% (Apr 24, 7:00 AM)30.36 "Hg (Apr 24, 7:00 AM)
Low36 °F (Apr 29, 8:00 AM)32% (Apr 21, 3:00 PM)29.65 "Hg (Apr 23, 4:00 PM)
Average54 °F78%30.10 "Hg
* Reported Apr 21 11:00 AM — May 6 11:00 AM, Salta, Weather by CustomWeather, © 2016

Note: Actual official high and low records may vary slightly from our data, if they occured in-between our weather recording intervals... More about our weather records

Advertising

Salta Weather History for the Previous 24 Hours

Scroll right to see more
 ConditionsComfort  
Time TempWeatherWind HumidityBarometerVisibility
11:00 AM
Fri, May 6
61 °FBroken clouds.3 mph77%30.15 "HgN/A
10:00 AM57 °FMore clouds than sun.5 mph88%30.15 "HgN/A
9:00 AM55 °FBroken clouds.2 mph94%30.15 "HgN/A
8:00 AM55 °FMore clouds than sun.2 mph88%30.12 "HgN/A
7:00 AM55 °FBroken clouds.2 mph88%30.09 "HgN/A
6:00 AM55 °FPartly cloudy.2 mph88%30.09 "HgN/A
5:00 AM55 °FPartly cloudy.5 mph88%30.07 "HgN/A
4:00 AM55 °FOvercast.3 mph88%30.07 "HgN/A
3:00 AM57 °FOvercast.3 mph88%30.07 "HgN/A
2:00 AM57 °FOvercast.3 mph82%30.09 "HgN/A
1:00 AM57 °FOvercast.3 mph82%30.09 "HgN/A
12:00 AM57 °FOvercast.5 mph82%30.09 "HgN/A
11:00 PM
Thu, May 5
57 °FPartly cloudy.5 mph82%30.09 "HgN/A
10:00 PM57 °FPartly cloudy.5 mph82%30.09 "HgN/A
9:00 PM59 °FPartly cloudy.6 mph77%30.09 "HgN/A
8:00 PM59 °FMostly cloudy.3 mph77%30.04 "HgN/A
6:00 PM61 °FPassing clouds.7 mph68%30.04 "HgN/A
5:00 PM63 °FBroken clouds.5 mph64%30.01 "HgN/A
4:00 PM64 °FBroken clouds.6 mph56%30.04 "HgN/A
3:00 PM64 °FBroken clouds.6 mph56%30.04 "HgN/A
2:00 PM64 °FBroken clouds.7 mph56%30.07 "HgN/A
1:00 PM63 °FBroken clouds.2 mph59%30.12 "HgN/A
12:00 PM59 °FPartly sunny.5 mph72%30.15 "HgN/A
Weather by CustomWeather, © 2016

See weather overviewHow to use our weather pages